Date String (YYYY-MM-DD hh:mm:ss) UTC,Instrument flags,absolute air pressure of the measurement (hPa),sample flow rate (lpm),inlet stack bypass flow (lpm),air temperature of the measurement (°C),ambient temperature measured by the external sensor (°C),aerosol sample conditioner tube jacket temperature (°C),OPC LED temperature (°C),internal box temperature (°C),relative humidity of the measurement (%),span deviation,mass concentration of particles derived from Lorenz-Mie calculation of OPC scattering (μg/m³),mass concentration of particles derived from Lorenz-Mie calculation of OPC scattering (μg/m³),mass concentration of particles derived from Lorenz-Mie calculation of OPC scattering (μg/m³)
DateTimeUTC,F1_M11,P_M11,Q1_M11,Q2_M11,T1_M11,T2_M11,T3_M11,T4_M11,T5_M11,U1_M11,ZSPAN_M11,X0_M11,X2_M11,X1_M11
2023-07-04 07:00:00,SystemResetWarning,0831.3,5.00,000.00,029.2,025.3,000.0,037.6,030.4,22.0,0000.0,0007.84,0003.77,0003.47
2023-07-04 07:01:00,SystemResetWarning,0831.3,5.01,000.00,029.1,025.7,000.0,037.6,030.4,22.0,0000.0,0007.93,0003.81,0003.48
2023-07-04 07:02:00,SystemResetWarning,0831.3,5.00,000.00,029.1,026.1,000.0,037.6,030.4,22.1,0000.0,0007.90,0003.82,0003.49
2023-07-04 07:03:00,SystemResetWarning,0831.3,4.99,000.00,029.1,026.4,000.0,037.7,030.5,22.4,0000.0,0007.94,0003.91,0003.51
2023-07-04 07:04:00,SystemResetWarning,0831.3,5.00,000.00,029.1,026.8,000.0,037.7,030.6,22.5,0000.0,0007.39,0003.98,0003.55
2023-07-04 07:05:00,SystemResetWarning,0831.2,5.00,000.00,029.1,027.0,000.0,037.7,030.6,22.6,0000.0,0008.61,0004.02,0003.60
2023-07-04 07:06:00,SystemResetWarning,0831.2,5.01,000.00,029.1,027.3,000.0,037.7,030.7,22.7,0000.0,0009.07,0004.07,0003.65
2023-07-04 07:07:00,SystemResetWarning,0831.2,5.00,000.00,029.1,027.4,000.0,037.7,030.7,22.7,0000.0,0009.08,0004.15,0003.70
2023-07-04 07:08:00,SystemResetWarning,0831.2,5.00,000.00,029.2,027.6,000.0,037.7,030.8,22.6,0000.0,0009.24,0004.25,0003.76
2023-07-04 07:09:00,SystemResetWarning,0831.3,5.00,000.00,029.2,027.7,000.0,037.7,030.8,22.6,0000.0,0009.51,0004.34,0003.83
2023-07-04 07:10:00,SystemResetWarning,0831.2,4.99,000.00,029.2,027.9,000.0,037.7,030.8,22.7,0000.0,0010.25,0004.44,0003.89
2023-07-04 07:11:00,SystemResetWarning,0831.3,5.00,000.00,029.2,028.0,000.0,037.7,030.9,22.6,0000.0,0010.20,0004.48,0003.93
2023-07-04 07:12:00,SystemResetWarning,0831.3,5.00,000.00,029.3,028.1,000.0,037.7,030.9,22.3,0000.0,0010.29,0004.53,0003.98
2023-07-04 07:13:00,SystemResetWarning,0831.3,5.00,000.00,029.3,028.1,000.0,037.8,031.0,22.2,0000.0,0010.51,0004.59,0004.01
2023-07-04 07:14:00,SystemResetWarning,0831.4,5.00,000.00,029.3,028.2,000.0,037.8,031.0,22.3,0000.0,0011.11,0004.59,0004.05
2023-07-04 07:15:00,SystemResetWarning,0831.5,5.01,000.00,029.4,028.3,000.0,037.8,031.0,22.2,0000.0,0012.02,0004.59,0004.06
2023-07-04 07:16:00,SystemResetWarning,0831.5,4.99,000.00,029.4,028.3,000.0,037.8,031.1,22.2,0000.0,0011.48,0004.66,0004.08
2023-07-04 07:17:00,SystemResetWarning,0831.6,4.99,000.00,029.4,028.3,000.0,037.9,031.1,22.0,0000.0,0010.59,0004.70,0004.09
2023-07-04 07:18:00,SystemResetWarning,0831.6,4.99,000.00,029.5,027.6,000.0,037.8,031.0,22.1,0000.0,0010.63,0004.71,0004.10
2023-07-04 07:19:00,SystemResetWarning,0831.6,5.01,000.00,029.4,025.6,000.0,037.7,030.8,22.7,0000.0,0010.72,0004.75,0004.12
2023-07-04 07:20:00,SystemResetWarning,0831.6,5.01,000.00,029.3,025.1,000.0,037.6,030.7,23.0,0000.0,0010.80,0004.74,0004.12
2023-07-04 07:21:00,SystemResetWarning,0831.6,5.01,000.00,029.2,025.3,000.0,037.6,030.4,22.8,0000.0,0010.92,0004.68,0004.12
2023-07-04 07:22:00,SystemResetWarning,0831.6,4.99,000.00,029.1,025.7,000.0,037.7,030.4,23.1,0000.0,0010.94,0004.69,0004.13
2023-07-04 07:23:00,SystemResetWarning,0831.6,5.01,000.00,029.1,026.1,000.0,037.7,030.4,23.1,0000.0,0011.67,0004.72,0004.13
2023-07-04 07:24:00,SystemResetWarning,0831.6,5.00,000.00,029.1,026.5,000.0,037.7,030.5,23.3,0000.0,0011.70,0004.73,0004.14
2023-07-04 07:25:00,SystemResetWarning,0831.6,4.99,000.00,029.1,026.8,000.0,037.7,030.6,23.0,0000.0,0011.12,0004.71,0004.14
2023-07-04 07:26:00,SystemResetWarning,0831.6,5.00,000.00,029.1,027.1,000.0,037.7,030.6,22.7,0000.0,0010.41,0004.72,0004.14
2023-07-04 07:27:00,SystemResetWarning,0831.6,5.00,000.00,029.1,027.3,000.0,037.7,030.7,22.7,0000.0,0009.98,0004.70,0004.13
2023-07-04 07:28:00,SystemResetWarning,0831.6,5.01,000.00,029.1,027.5,000.0,037.7,030.7,22.5,0000.0,0009.87,0004.64,0004.12
2023-07-04 07:29:00,SystemResetWarning,0831.6,4.99,000.00,029.2,027.6,000.0,037.7,030.8,22.3,0000.0,0009.86,0004.65,0004.12
2023-07-04 07:30:00,SystemResetWarning,0831.7,5.00,000.00,029.2,027.8,000.0,037.7,030.8,22.2,0000.0,0009.94,0004.61,0004.10
2023-07-04 07:31:00,SystemResetWarning,0831.9,5.00,000.00,029.2,027.9,000.0,037.7,030.8,22.1,0000.0,0010.47,0004.58,0004.10
2023-07-04 07:32:00,SystemResetWarning,0831.9,5.00,000.00,029.2,028.0,000.0,037.7,030.9,22.4,0000.0,0009.77,0004.58,0004.08
2023-07-04 07:33:00,SystemResetWarning,0831.9,5.00,000.00,029.3,028.0,000.0,037.8,030.9,22.5,0000.0,0009.71,0004.59,0004.08
2023-07-04 07:34:00,SystemResetWarning,0832.0,5.00,000.00,029.3,028.1,000.0,037.8,030.9,22.4,0000.0,0009.18,0004.57,0004.07
2023-07-04 07:35:00,SystemResetWarning,0832.1,5.00,000.00,029.3,028.2,000.0,037.8,031.0,22.2,0000.0,0009.37,0004.54,0004.05
2023-07-04 07:36:00,SystemResetWarning,0832.0,5.00,000.00,029.4,028.2,000.0,037.8,031.0,21.9,0000.0,0009.25,0004.50,0004.02
2023-07-04 07:37:00,SystemResetWarning,0832.1,5.00,000.00,029.4,028.2,000.0,037.8,031.0,22.2,0000.0,0009.05,0004.47,0003.99
2023-07-04 07:38:00,SystemResetWarning,0832.1,5.00,000.00,029.4,028.3,000.0,037.9,031.0,22.3,0000.0,0008.90,0004.43,0003.95
2023-07-04 07:39:00,SystemResetWarning,0832.1,5.00,000.00,029.4,028.3,000.0,037.9,031.1,21.6,0000.0,0008.87,0004.41,0003.92
2023-07-04 07:40:00,SystemResetWarning,0832.1,5.00,000.00,029.5,028.3,000.0,037.9,031.1,20.6,0000.0,0008.96,0004.36,0003.88
2023-07-04 07:41:00,SystemResetWarning,0832.0,4.99,000.00,029.5,028.4,000.0,037.9,031.1,20.4,0000.0,0008.79,0004.33,0003.84
2023-07-04 07:42:00,SystemResetWarning,0832.0,5.00,000.00,029.5,028.3,000.0,038.0,031.1,19.9,0000.0,0008.38,0004.32,0003.80
2023-07-04 07:43:00,SystemResetWarning,0832.0,5.00,000.00,029.5,026.7,000.0,037.9,031.0,19.4,0000.0,0008.10,0004.27,0003.77
2023-07-04 07:44:00,SystemResetWarning,0832.0,5.00,000.00,029.4,025.3,000.0,037.7,030.8,19.4,0000.0,0008.55,0004.21,0003.72
2023-07-04 07:45:00,SystemResetWarning,0831.9,5.01,000.00,029.3,025.2,000.0,037.7,030.5,19.9,0000.0,0008.40,0004.16,0003.68
2023-07-04 07:46:00,SystemResetWarning,0831.9,5.01,000.00,029.2,025.5,000.0,037.7,030.4,19.9,0000.0,0007.92,0004.12,0003.64
2023-07-04 07:47:00,SystemResetWarning,0831.9,5.00,000.00,029.2,025.9,000.0,037.7,030.4,19.9,0000.0,0007.82,0004.07,0003.61
2023-07-04 07:48:00,SystemResetWarning,0831.8,5.00,000.00,029.1,026.3,000.0,037.7,030.5,19.8,0000.0,0007.72,0004.02,0003.59
2023-07-04 07:49:00,SystemResetWarning,0831.7,5.00,000.00,029.1,026.7,000.0,037.7,030.6,19.7,0000.0,0008.14,0003.98,0003.58
2023-07-04 07:50:00,SystemResetWarning,0831.6,5.00,000.00,029.1,027.0,000.0,037.7,030.6,19.0,0000.0,0008.35,0003.96,0003.56
2023-07-04 07:51:00,SystemResetWarning,0831.6,5.00,000.00,029.2,027.2,000.0,037.8,030.7,18.6,0000.0,0008.15,0003.92,0003.54
2023-07-04 07:52:00,SystemResetWarning,0831.5,4.99,000.00,029.2,027.4,000.0,037.8,030.7,17.9,0000.0,0008.01,0003.88,0003.52
2023-07-04 07:53:00,SystemResetWarning,0831.5,5.00,000.00,029.2,027.6,000.0,037.8,030.8,18.1,0000.0,0007.92,0003.84,0003.51
2023-07-04 07:54:00,SystemResetWarning,0831.5,5.00,000.00,029.2,027.7,000.0,037.8,030.8,18.2,0000.0,0009.07,0003.84,0003.50
2023-07-04 07:55:00,SystemResetWarning,0831.4,5.00,000.00,029.3,027.9,000.0,037.8,030.9,18.1,0000.0,0008.49,0003.81,0003.48
2023-07-04 07:56:00,SystemResetWarning,0831.4,5.00,000.00,029.3,028.0,000.0,037.8,030.9,18.2,0000.0,0008.58,0003.77,0003.46
2023-07-04 07:57:00,SystemResetWarning,0831.3,5.01,000.00,029.3,028.0,000.0,037.8,030.9,18.3,0000.0,0008.93,0003.73,0003.43
2023-07-04 07:58:00,SystemResetWarning,0831.2,5.00,000.00,029.3,028.1,000.0,037.8,031.0,18.2,0000.0,0009.34,0003.71,0003.41
2023-07-04 07:59:00,SystemResetWarning,0831.2,5.00,000.00,029.4,028.2,000.0,037.9,031.0,18.2,0000.0,0009.61,0003.67,0003.39
